Location: Cahas Mountain Overlook
(37.0833°N, 80.1000°W)
Time: 08:30:47
(UTC-04:00)

Explorer 7 - Pass Details

Date: 16 February 2026
Orbit: 430 x 540 km, 50.2° (Epoch: 14 March)

Event Time Altitude Azimuth Distance (km) Brightness Sun altitude
Rises 23:59:50 0° 287° (WNW) 2,640 - -64.1°
Reaches altitude 10° 00:03:06 10° 259° (W) 1,770 - -64.3°
Maximum altitude 00:04:56 13° 232° (SW) 1,605 - -64.4°
Drops below altitude 10° 00:06:50 10° 204° (SSW) 1,796 - -64.5°
Sets 00:10:06 0° 176° (S) 2,684 - -64.6°
